STARLINK-4578 (53965 NORAD) Tracking and Keplerian Element Data

This shows tracking and keplerian element data for the satellite.

Feedback or suggestion? Click here.




ElementValue
Catalog53965
NameSTARLINK-4578
Epoch Orbit130
Epoch Day324.91667824
Epoch Year2022
RAAN232.6725
Inclination53.2161
Eccentricity0.0001721
Argument of Perigee50.4105
Mean Anonmoly204.0013
Mean Motion15.08876834
Decay Rate-0.00061965
L11 53965U 22125B 22324.91667824 -.00061965 00000+0 -39050-2 0 9993
L22 53965 53.2161 232.6725 0001721 50.4105 204.0013 15.08876834 1305



Live tracking and technical data element details for STARLINK-4578 (NORAD 53965). STARLINK-4578 can be tracked NOW for your location showing map with azimuth and elevation plus other details from your city location.







IsCatalogInMostPopularTable: catalog: 53965, numindb: 3
Update: records affected: 1



GetName: 53965 STARLINK-4578

Hit Count: updated at: Mon, 28 Nov 2022 20:42:47 GMT